Weather History for Telfer, WE

Change the Weather History Date:

Wednesday, November 28, 2012

  Actual Average Record
Temperature  
Mean Temperature 90 °F -  
Max Temperature 103 °F - - ()
Min Temperature 76 °F - - ()
Cooling Degree Days 24    
Growing Degree Days 40 (Base 50)    
Moisture  
Dew Point 59 °F    
Average Humidity 35    
Maximum Humidity 74    
Minimum Humidity 13    
Precipitation  
Precipitation 0.00 in - - ()
Sea Level Pressure  
Sea Level Pressure 29.76 in    
Wind  
Wind Speed 12 mph ()    
Max Wind Speed 22 mph    
Max Gust Speed 37 mph    
T = Trace of Precipitation, MM = Missing Value Source: Averaged Metar Reports

Daily Weather History Graph

Daily Weather History Graph

Search for Another Location

Airport:

Trip Planner

Search our weather history database for the weather conditions in past years. The results will help you decide how hot, cold, wet, or windy it might be!

Date:

Astronomy

Nov. 28, 2012 Rise Set
Actual Time 4:59 AM AWST 6:19 PM AWST
Civil Twilight 4:34 AM AWST 6:43 PM AWST
Nautical Twilight 4:05 AM AWST 7:12 PM AWST
Astronomical Twilight 3:35 AM AWST 7:42 PM AWST
Moon 6:05 PM AWST (11/28) 4:32 AM AWST (11/28)
Length of Visible Light 14h 08m
Length of Day
13h 19m
Full, 100% of the Moon is Illuminated
Nov 28
Full
Nov 28
Full
Dec 6
Last Quarter
Dec 13
New
Dec 20
First Quarter

Hourly Weather History & Observations

Time (AWST) Temp. Heat Index Dew Point Humidity Pressure Visibility Wind Dir Wind Speed Gust Speed Precip Events Conditions
12:00 AM 84 °F - 62 °F 38% 29.72 in - WNW 11.5 mph - -  
1:00 AM 80.6 °F 82.3 °F 64.4 °F 58% 29.77 in - NW 9.2 mph - N/A   Unknown
2:00 AM 80 °F - 67 °F 55% 29.72 in - WNW 12.7 mph - -  
3:00 AM 79 °F - 67 °F 60% 29.73 in - WNW 11.5 mph - -  
3:00 AM 78.8 °F - 68.0 °F 69% 29.77 in - WNW 11.5 mph - N/A   Unknown
4:00 AM 78.8 °F - 68.0 °F 69% 29.80 in - WNW 10.4 mph - N/A   Unknown
5:00 AM 77 °F - 69 °F 68% 29.75 in - NW 9.2 mph - -  
5:00 AM 77.0 °F - 68.0 °F 74% 29.80 in - NW 9.2 mph - N/A   Unknown
6:00 AM 78 °F - 68 °F 63% 29.77 in - WNW 8.1 mph - -  
6:00 AM 78.8 °F - 68.0 °F 69% 29.83 in - WNW 8.1 mph - N/A   Unknown
7:00 AM 84.2 °F 86.6 °F 66.2 °F 55% 29.83 in - WNW 11.5 mph - N/A   Unknown
8:00 AM 87 °F - 63 °F 35% 29.80 in - NW 9.2 mph - -  
8:00 AM 87.8 °F 88.5 °F 62.6 °F 43% 29.86 in - NW 9.2 mph - N/A   Unknown
9:00 AM 91 °F - 60 °F 25% 29.80 in - NW 11.5 mph - -  
9:00 AM 91.4 °F 90.7 °F 59.0 °F 34% 29.86 in - NW 11.5 mph - N/A   Unknown
10:00 AM 93.2 °F 92.6 °F 59.0 °F 32% 29.86 in - NW 15.0 mph - N/A   Unknown
11:00 AM 97 °F - 58 °F 18% 29.78 in - WNW 17.3 mph - -  
11:00 AM 96.8 °F 96.2 °F 59.0 °F 28% 29.83 in - WNW 17.3 mph - N/A   Unknown
12:00 PM 98.6 °F 97.6 °F 57.2 °F 25% 29.80 in - NW 18.4 mph - N/A   Unknown
1:00 PM 98.6 °F 97.2 °F 55.4 °F 24% 29.77 in - NW 16.1 mph - N/A   Unknown
1:22 PM 102.2 °F 101.4 °F 57.2 °F 22% 29.77 in - NW 18.4 mph 29.9 mph N/A   Unknown
2:00 PM 101 °F - 55 °F 14% 29.69 in - NW 20.7 mph - -  
2:00 PM 100.4 °F 98.8 °F 55.4 °F 22% 29.74 in - NW 20.7 mph - N/A   Unknown
2:15 PM 100.4 °F 98.8 °F 55.4 °F 22% 29.74 in - NW 19.6 mph 31.1 mph N/A   Unknown
3:00 PM 102 °F - 54 °F 13% 29.67 in - West 19.6 mph - -  
3:00 PM 102.2 °F 100.9 °F 55.4 °F 21% 29.71 in - West 19.6 mph - N/A   Unknown
3:06 PM 102.2 °F 100.4 °F 53.6 °F 20% 29.71 in - WNW 19.6 mph 36.8 mph N/A   Unknown
4:00 PM 100.4 °F 98.8 °F 55.4 °F 22% 29.71 in - WNW 20.7 mph - N/A   Unknown
4:05 PM 100.4 °F 98.8 °F 55.4 °F 22% 29.71 in - WNW 21.9 mph 34.5 mph N/A   Unknown
5:00 PM 99 °F - 55 °F 15% 29.65 in - WNW 20.7 mph - -  
5:00 PM 98.6 °F 97.2 °F 55.4 °F 24% 29.71 in - WNW 20.7 mph - N/A   Unknown
6:00 PM 97 °F - 57 °F 18% 29.66 in - WNW 18.4 mph - -  
6:00 PM 96.8 °F 95.8 °F 57.2 °F 27% 29.71 in - WNW 18.4 mph - N/A   Unknown
7:00 PM 95.0 °F 93.7 °F 57.2 °F 28% 29.74 in - WNW 15.0 mph - N/A   Unknown
8:00 PM 92 °F - 57 °F 22% 29.70 in - WNW 12.7 mph - -  
8:00 PM 93.2 °F 91.9 °F 57.2 °F 30% 29.74 in - WNW 12.7 mph - N/A   Unknown
9:00 PM 91 °F - 55 °F 20% 29.72 in - WNW 15.0 mph - -  
9:00 PM 91.4 °F 89.4 °F 55.4 °F 29% 29.77 in - WNW 15.0 mph - N/A   Unknown
10:00 PM 89.6 °F 87.7 °F 55.4 °F 31% 29.77 in - WNW 16.1 mph - N/A   Unknown
11:00 PM 86 °F - 55 °F 25% 29.73 in - NW 13.8 mph - -  
11:00 PM 86.0 °F 84.5 °F 55.4 °F 35% 29.80 in - NW 13.8 mph - N/A   Unknown